Probability
29 3 0 0 0 0 0 0 0 0 0 0 0 0 0 0 0 0 0 16 10 26 71 90 100 84 61 39 13 6 6 3 3 0 0 0 3 6 3 6 6 3 3 0 3 0 0 0 0
6 3 0 0 0 0 0 0 0 0 0 0 0 0 0 0 0 10 23 19 10 32 71 81 100 81 55 32 10 6 6 6 6 0 3 3 13 3 3 3 3 3 0 0 0 0 0 0 0
13 0 0 0 0 0 0 0 0 0 0 0 0 0 0 0 0 6 32 26 26 32 48 87 100 84 55 32 19 10 10 6 6 3 6 3 3 0 0 0 0 0 0 0 0 0 0 0 0
3 0 0 0 0 0 0 0 0 0 0 0 0 6 6 0 0 29 39 26 23 23 52 94 100 84 58 26 26 19 13 6 6 6 3 3 0 0 0 0 0 0 0 0 0 0 0 0 0
0 0 0 0 0 0 0 0 0 0 0 0 0 3 10 0 16 48 35 23 13 29 71 97 100 74 58 29 32 26 32 16 10 10 3 0 0 0 0 0 0 0 0 0 0 0 0 0 0
0 0 0 0 0 0 0 0 0 0 0 0 0 0 6 0 23 45 29 26 32 58 81 100 100 81 65 42 32 35 45 23 10 13 6 0 0 0 0 0 0 0 0 0 0 0 0 0 0
0 0 0 0 0 0 0 0 0 0 0 0 0 0 0 3 10 26 35 42 52 71 84 90 77 61 48 35 39 39 45 29 16 16 6 3 0 0 0 0 0 0 0 0 0 0 0 0 0
0 0 0 0 0 0 0 0 0 0 0 0 0 0 0 3 10 32 42 45 58 58 77 68 45 23 16 19 23 23 19 13 13 13 0 0 0 0 0 0 0 0 0 0 0 0 0 0 0
0 0 0 0 0 0 0 0 0 0 0 10 6 3 10 13 23 45 55 48 48 58 58 45 26 19 16 10 6 0 3 0 0 0 0 0 0 0 0 0 0 0 0 0 0 0 0 0 0
0 0 0 0 0 0 0 0 0 0 0 16 32 52 35 32 39 52 45 48 45 42 45 26 16 13 10 6 3 0 0 0 0 0 0 0 0 0 0 0 0 0 0 0 0 0 0 0 0
0 0 0 0 0 0 0 0 0 0 0 6 23 55 55 32 16 42 39 35 35 32 26 16 13 6 6 3 0 0 0 0 0 0 0 0 0 0 0 0 0 0 0 0 0 0 0 0 0
0 0 0 0 0 0 0 0 0 0 0 3 32 61 55 42 23 26 32 32 32 29 29 23 13 6 3 3 0 0 0 0 0 0 0 0 0 0 0 0 0 0 0 0 0 0 0 0 0
0 0 0 0 0 0 0 0 0 0 3 13 39 52 39 29 10 10 16 32 29 23 32 29 19 13 3 3 3 0 0 0 0 0 0 0 0 0 0 0 0 0 0 0 0 0 0 0 0
0 0 0 0 0 0 0 0 0 0 13 16 35 42 42 19 6 6 10 13 19 19 32 32 23 13 10 6 3 3 0 0 0 0 0 0 0 0 0 0 0 0 0 0 0 0 0 0 0
0 0 0 0 0 0 0 0 0 0 10 16 16 23 19 10 6 10 6 10 23 29 32 26 23 13 6 3 3 3 3 0 0 0 0 0 0 0 0 0 0 0 0 0 0 0 0 0 0
0 0 0 0 0 0 0 0 0 0 0 3 6 6 10 13 10 6 6 6 10 16 23 26 29 16 13 3 0 0 3 3 0 0 0 0 0 0 0 0 0 0 0 0 0 0 0 0 0
0 0 0 0 0 0 0 0 0 0 0 0 0 3 3 6 0 0 6 6 3 6 6 6 10 6 13 6 0 0 0 0 0 0 0 0 0 0 0 0 0 0 0 0 0 0 0 0 0
0 0 0 0 0 0 0 0 0 0 0 0 0 0 0 3 3 0 0 3 3 3 3 3 3 3 0 0 0 0 0 0 0 0 0 0 0 0 0 0 0 0 0 0 0 0 0 0 0
0 0 0 0 0 0 0 0 0 0 0 0 0 0 0 0 0 0 0 0 0 3 3 0 0 0 0 0 0 0 0 0 0 0 0 0 0 0 0 0 0 0 0 0 0 0 0 0 0
0 0 0 0 0 0 0 0 0 0 0 0 0 0 0 0 0 0 0 0 0 0 0 0 0 0 0 0 0 0 0 0 0 0 0 0 0 0 0 0 0 0 0 0 0 0 0 0 0
0 0 0 0 0 0 0 0 0 0 0 0 0 0 0 0 0 0 0 0 0 0 0 0 0 0 0 0 0 0 0 0 0 0 0 0 0 0 0 0 0 0 0 0 0 0 0 0 0
0 0 0 0 0 0 0 0 0 0 0 0 0 0 0 0 0 0 0 0 0 0 0 0 0 0 0 0 0 0 0 0 0 0 0 0 0 0 0 0 0 0 0 0 0 0 0 0 0
0 0 0 0 0 0 0 0 0 0 0 0 0 0 0 0 0 0 0 0 0 0 0 0 3 0 3 0 0 0 0 0 0 0 0 0 0 0 0 0 0 0 0 0 0 0 0 0 0
0 0 0 0 0 0 0 0 0 0 0 0 0 0 0 0 0 0 0 0 0 0 0 0 0 0 0 0 0 0 0 0 0 0 0 0 0 0 0 0 0 0 0 0 0 0 0 0 0
0 0 0 0 0 0 0 0 0 0 0 0 0 0 0 0 0 0 0 0 0 0 0 0 0 0 0 0 3 0 0 0 0 0 0 0 0 0 0 0 0 0 0 0 0 0 0 0 0
0 0 0 0 0 0 0 0 0 0 0 0 0 0 0 0 0 0 0 0 0 0 0 0 0 0 0 0 3 3 0 0 0 0 0 0 0 0 0 0 0 0 0 0 0 0 0 0 0
0 0 0 0 0 0 0 0 0 0 0 0 0 0 0 0 0 0 0 0 0 0 0 0 0 0 0 0 0 0 0 0 0 0 0 0 0 0 0 0 0 0 0 0 0 0 0 0 0
0 0 0 0 0 0 0 0 0 0 0 0 0 0 0 0 0 0 0 0 0 0 0 0 0 0 0 0 0 0 0 0 0 0 0 0 0 0 0 0 0 0 0 0 0 0 0 0 0
0 0 0 0 0 0 0 0 0 0 0 0 0 0 0 0 0 0 0 0 0 0 0 0 0 0 0 0 0 0 0 0 0 0 0 0 0 0 0 0 0 0 0 0 0 0 0 0 0
0 0 0 0 0 0 0 0 0 0 0 0 0 0 0 0 0 0 0 0 0 0 0 0 0 0 0 0 0 0 0 0 0 0 0 0 0 0 0 0 0 0 0 0 0 0 0 0 0
Height
5758 5764 5771 5777 5782 5788 5798 5811 5818 5822 5825 5829 5836 5841 5846 5851 5857 5863 5864 5866 5870 5873 5875 5877 5879 5881 5883 5885 5886 5887 5888 5889 5889 5890 5890 5891 5891 5891 5892 5892 5892 5891 5891 5891 5890 5889 5889 5888 5887
5748 5754 5762 5767 5772 5781 5795 5806 5812 5817 5820 5825 5830 5835 5840 5846 5852 5856 5859 5863 5866 5869 5872 5875 5877 5879 5881 5883 5884 5885 5886 5887 5888 5888 5889 5890 5890 5890 5890 5891 5891 5890 5890 5890 5889 5888 5888 5887 5886
5738 5745 5753 5758 5764 5778 5793 5801 5807 5810 5813 5818 5824 5830 5836 5842 5847 5851 5855 5859 5862 5866 5869 5872 5874 5876 5879 5880 5882 5883 5884 5886 5886 5887 5887 5888 5889 5889 5889 5889 5889 5889 5889 5889 5888 5887 5887 5886 5885
5730 5738 5744 5750 5760 5777 5788 5794 5798 5802 5806 5812 5818 5824 5831 5837 5842 5846 5850 5854 5858 5862 5865 5868 5871 5873 5876 5878 5880 5881 5882 5884 5885 5885 5886 5887 5887 5888 5888 5888 5888 5888 5888 5887 5887 5886 5886 5885 5884
5722 5729 5734 5742 5756 5771 5779 5785 5790 5794 5800 5806 5812 5819 5825 5831 5836 5840 5845 5849 5854 5857 5861 5864 5868 5870 5873 5875 5877 5879 5880 5881 5883 5883 5884 5885 5885 5886 5886 5887 5887 5886 5886 5886 5885 5885 5884 5884 5883
5713 5719 5726 5737 5753 5764 5771 5778 5783 5787 5794 5800 5807 5813 5819 5826 5830 5835 5839 5844 5848 5853 5857 5860 5864 5867 5870 5872 5874 5876 5878 5879 5880 5881 5882 5883 5884 5884 5884 5885 5885 5885 5885 5884 5884 5884 5883 5882 5882
5706 5712 5721 5735 5747 5755 5764 5772 5776 5783 5788 5795 5802 5808 5814 5821 5826 5829 5833 5838 5843 5848 5852 5856 5860 5863 5866 5869 5871 5873 5875 5876 5878 5879 5880 5881 5881 5882 5882 5883 5883 5883 5883 5883 5882 5882 5881 5881 5880
5699 5707 5715 5727 5737 5748 5758 5764 5770 5777 5783 5789 5797 5803 5810 5816 5821 5825 5828 5831 5837 5842 5847 5852 5855 5859 5862 5865 5868 5870 5872 5873 5875 5876 5877 5878 5879 5880 5880 5880 5881 5881 5881 5880 5880 5880 5879 5879 5878
5691 5699 5707 5721 5732 5743 5751 5757 5764 5770 5777 5783 5791 5798 5804 5808 5814 5819 5823 5826 5831 5837 5842 5847 5851 5855 5858 5861 5864 5866 5868 5870 5871 5873 5874 5875 5876 5877 5877 5878 5878 5878 5878 5878 5878 5878 5877 5876 5876
5683 5691 5706 5719 5728 5737 5744 5750 5758 5764 5772 5779 5786 5792 5797 5803 5809 5814 5819 5822 5827 5832 5837 5842 5846 5850 5853 5856 5859 5862 5864 5866 5868 5869 5870 5871 5873 5874 5874 5875 5875 5875 5876 5876 5875 5875 5874 5874 5873
5677 5689 5703 5711 5719 5727 5734 5742 5750 5758 5766 5774 5782 5788 5793 5798 5804 5809 5814 5819 5822 5827 5831 5836 5841 5845 5849 5852 5855 5858 5860 5862 5864 5865 5867 5868 5869 5870 5871 5871 5872 5872 5872 5872 5872 5872 5871 5871 5870
5673 5684 5693 5702 5710 5718 5726 5735 5744 5752 5761 5769 5776 5782 5787 5793 5798 5804 5809 5814 5819 5823 5826 5830 5835 5840 5844 5847 5851 5853 5856 5858 5860 5861 5863 5864 5865 5866 5867 5868 5869 5869 5869 5869 5869 5869 5868 5867 5867
5666 5677 5685 5694 5702 5710 5719 5728 5737 5746 5754 5762 5769 5776 5782 5787 5793 5798 5803 5809 5813 5818 5822 5826 5830 5834 5838 5842 5846 5849 5851 5853 5855 5857 5858 5860 5861 5862 5863 5864 5865 5865 5865 5865 5865 5865 5864 5864 5863
5661 5670 5677 5686 5695 5703 5713 5722 5730 5739 5748 5755 5763 5770 5776 5782 5787 5793 5798 5804 5808 5813 5818 5821 5825 5829 5832 5836 5840 5843 5846 5848 5850 5852 5854 5855 5857 5858 5859 5860 5860 5861 5861 5861 5861 5861 5860 5860 5859
5653 5663 5671 5680 5688 5698 5707 5715 5725 5734 5741 5749 5756 5763 5770 5776 5781 5787 5792 5797 5802 5807 5812 5817 5820 5824 5827 5830 5834 5837 5840 5843 5845 5847 5848 5850 5852 5853 5854 5855 5855 5856 5856 5856 5856 5856 5856 5855 5854
5646 5655 5664 5674 5683 5691 5701 5710 5720 5727 5735 5742 5750 5757 5763 5769 5775 5781 5785 5791 5796 5801 5806 5811 5815 5819 5822 5825 5828 5831 5834 5837 5839 5841 5843 5844 5846 5847 5848 5849 5850 5851 5851 5851 5851 5851 5851 5850 5849
5639 5649 5659 5670 5677 5686 5694 5704 5713 5720 5728 5736 5743 5750 5756 5762 5768 5774 5779 5784 5789 5795 5800 5804 5809 5813 5816 5819 5822 5825 5828 5831 5833 5835 5837 5838 5839 5841 5842 5843 5844 5844 5845 5845 5845 5845 5844 5844 5843
5636 5646 5656 5665 5673 5680 5689 5699 5707 5714 5722 5730 5737 5743 5750 5756 5762 5767 5772 5777 5783 5788 5793 5798 5801 5806 5810 5813 5816 5819 5822 5825 5827 5829 5830 5831 5833 5834 5835 5836 5837 5837 5838 5838 5838 5838 5837 5837 5836
5633 5643 5653 5662 5670 5677 5685 5693 5701 5708 5716 5724 5730 5737 5743 5750 5755 5761 5766 5771 5776 5781 5786 5790 5794 5798 5802 5806 5809 5812 5815 5817 5820 5822 5823 5824 5826 5827 5828 5829 5829 5830 5830 5830 5830 5830 5830 5829 5828
5631 5640 5649 5658 5666 5673 5680 5688 5695 5702 5709 5717 5724 5731 5737 5743 5748 5754 5760 5765 5770 5775 5780 5784 5788 5791 5795 5798 5801 5804 5807 5810 5812 5814 5816 5817 5818 5819 5820 5821 5821 5821 5822 5822 5821 5821 5821 5820 5819
5631 5639 5648 5656 5663 5669 5676 5682 5689 5696 5703 5710 5717 5724 5731 5737 5743 5749 5754 5759 5764 5769 5773 5777 5781 5784 5787 5790 5794 5797 5799 5802 5804 5806 5808 5809 5810 5811 5811 5812 5812 5813 5813 5813 5813 5812 5812 5811 5810
5631 5639 5647 5654 5660 5666 5673 5678 5685 5692 5698 5705 5712 5719 5726 5731 5737 5743 5748 5753 5757 5762 5766 5770 5773 5777 5780 5783 5786 5788 5791 5794 5796 5797 5799 5800 5801 5802 5802 5803 5803 5803 5804 5804 5803 5803 5802 5801 5800
5633 5639 5646 5653 5659 5664 5669 5675 5682 5687 5694 5701 5708 5714 5720 5726 5731 5736 5741 5746 5750 5754 5758 5762 5765 5768 5771 5774 5777 5780 5783 5785 5786 5788 5790 5791 5791 5792 5793 5793 5793 5793 5794 5794 5793 5792 5792 5791 5790
5633 5639 5645 5651 5656 5662 5667 5673 5679 5685 5692 5698 5704 5709 5715 5720 5725 5730 5734 5739 5743 5746 5750 5754 5757 5760 5763 5766 5768 5771 5773 5775 5777 5778 5780 5781 5782 5782 5783 5783 5783 5783 5783 5783 5782 5782 5781 5780 5779
5635 5640 5646 5650 5654 5660 5665 5670 5677 5683 5688 5693 5699 5703 5709 5714 5719 5723 5727 5731 5735 5738 5742 5745 5748 5751 5754 5757 5759 5761 5763 5765 5767 5768 5770 5771 5771 5772 5772 5772 5772 5772 5772 5772 5771 5771 5770 5769 5768
5635 5641 5646 5650 5654 5659 5663 5668 5675 5679 5684 5689 5694 5698 5703 5707 5712 5716 5721 5724 5727 5730 5733 5736 5739 5742 5745 5748 5750 5752 5753 5755 5757 5758 5759 5760 5760 5761 5761 5761 5761 5761 5761 5760 5760 5759 5758 5758 5756
5636 5640 5644 5649 5652 5657 5660 5665 5671 5675 5680 5684 5689 5693 5697 5701 5705 5710 5713 5716 5719 5722 5725 5727 5730 5733 5735 5738 5740 5742 5743 5745 5746 5747 5748 5749 5750 5750 5750 5750 5750 5749 5749 5749 5748 5747 5746 5746 5744
5637 5640 5644 5647 5650 5654 5658 5662 5667 5671 5675 5679 5683 5687 5691 5695 5698 5702 5705 5708 5711 5714 5716 5718 5721 5723 5725 5727 5730 5731 5733 5734 5735 5736 5737 5738 5738 5738 5738 5738 5738 5738 5737 5737 5736 5735 5734 5733 5732
5638 5641 5643 5646 5649 5652 5656 5661 5663 5666 5669 5673 5677 5680 5684 5688 5691 5694 5697 5700 5702 5705 5707 5709 5711 5713 5715 5717 5719 5720 5722 5723 5724 5725 5725 5726 5726 5726 5726 5726 5725 5725 5724 5724 5723 5723 5722 5721 5719
5637 5639 5642 5645 5647 5650 5653 5659 5658 5661 5664 5667 5671 5674 5677 5680 5683 5686 5689 5691 5694 5696 5698 5700 5702 5704 5705 5707 5708 5709 5710 5712 5713 5713 5714 5714 5714 5714 5713 5713 5713 5712 5712 5711 5711 5710 5709 5708 5707
Wind_Speed
59 60 61 60 60 60 58 54 48 48 49 49 48 45 41 39 37 34 32 29 27 25 22 20 18 16 14 13 12 11 10 10 10 9 9 9 9 8 8 7 7 6 6 5 5 5 4 4 4
59 61 61 62 63 61 57 53 50 49 49 49 49 47 43 40 37 36 34 32 29 27 24 22 19 17 16 14 13 12 11 11 11 11 10 10 10 9 9 8 7 7 6 6 6 5 5 5 5
59 60 61 63 64 60 54 51 50 50 48 49 50 48 44 41 38 37 36 34 31 29 26 23 21 19 17 15 14 13 13 12 12 12 12 12 11 11 10 9 8 7 7 7 6 6 6 6 5
58 59 62 63 62 57 53 50 51 52 49 49 49 49 46 41 39 38 37 35 33 30 28 25 22 20 18 16 15 14 14 13 13 13 13 13 12 12 11 10 9 8 8 7 7 7 7 6 6
57 59 62 64 60 56 54 51 51 53 51 48 48 49 47 43 41 40 39 36 34 31 29 26 23 21 19 17 16 15 15 14 14 14 14 14 14 13 12 11 10 9 8 8 8 7 7 7 7
57 60 61 61 58 55 55 52 52 52 53 50 48 50 47 44 41 41 40 37 36 33 30 27 24 22 20 18 17 16 16 15 15 16 16 16 15 14 13 12 11 10 9 9 9 8 8 8 8
58 60 60 58 57 56 55 53 52 52 52 51 50 49 48 45 41 41 39 38 36 34 31 28 26 23 21 19 18 17 17 17 17 17 17 17 16 15 14 13 12 11 10 10 10 9 9 9 9
56 58 59 58 57 56 53 53 51 52 51 51 51 51 48 46 42 40 40 38 36 34 33 30 27 25 22 20 19 18 18 18 18 18 18 18 18 17 15 14 13 12 12 11 11 10 10 10 10
55 58 59 57 56 54 52 52 52 52 53 51 51 51 50 47 44 41 38 38 37 36 34 31 29 26 23 22 20 19 19 19 19 19 19 19 19 18 17 15 14 13 13 12 12 12 11 11 11
55 57 56 54 54 53 52 52 52 51 52 51 50 49 49 48 45 41 39 38 38 36 34 32 29 26 24 23 21 20 20 20 20 20 20 20 20 19 18 17 16 15 14 13 13 13 13 13 12
53 54 53 54 54 54 52 52 54 52 52 51 49 48 47 47 45 42 40 39 38 37 36 34 30 27 25 24 22 21 21 21 21 21 21 21 21 20 19 18 17 16 15 15 15 14 14 14 14
51 53 54 54 55 54 54 53 54 54 52 50 49 47 47 46 44 44 42 40 38 37 35 35 32 29 26 25 23 22 21 21 22 22 22 22 22 21 21 20 19 18 17 17 16 16 16 16 16
51 52 53 54 54 55 54 53 53 53 53 52 50 48 48 47 46 44 43 41 40 37 35 34 32 30 28 26 24 22 22 22 22 22 23 24 23 23 22 21 21 20 19 19 18 18 18 18 18
51 51 53 53 53 54 54 52 53 52 51 51 50 49 48 48 46 46 45 43 40 37 35 34 33 32 30 28 25 23 22 22 23 23 24 24 24 24 24 24 23 22 22 21 21 20 20 20 20
50 51 53 53 52 52 53 54 52 51 51 51 50 49 48 47 47 46 46 45 42 39 36 35 35 34 32 29 27 25 24 24 24 24 25 25 26 26 26 26 26 25 24 24 23 23 22 22 23
50 53 53 54 52 52 53 54 52 49 49 50 49 48 48 47 46 46 46 45 43 41 40 38 36 36 34 31 29 28 27 27 26 26 26 26 27 27 28 28 28 27 27 26 26 26 26 26 26
48 52 53 53 52 51 52 53 52 50 48 49 48 47 46 46 46 45 45 45 44 43 42 41 38 37 35 33 32 31 30 30 29 28 28 28 28 29 29 30 30 30 30 30 30 29 29 29 29
45 50 50 50 49 50 50 51 50 51 48 48 47 47 46 46 45 45 44 43 43 43 44 43 41 38 36 36 34 33 33 32 31 31 30 31 31 31 31 32 32 32 32 33 33 33 32 33 33
41 46 48 48 47 48 49 51 50 49 48 47 46 46 45 44 44 44 44 44 41 41 43 43 43 42 40 38 37 36 35 34 34 34 33 33 33 32 32 33 33 34 35 36 36 36 36 37 37
39 43 44 45 45 45 47 49 50 48 46 46 44 45 43 42 43 43 43 43 43 41 40 41 42 43 43 43 40 39 38 37 36 36 36 35 35 35 35 35 35 35 36 38 38 39 39 39 40
36 39 41 43 43 42 44 48 48 45 45 44 43 42 41 40 39 39 41 41 42 42 42 41 42 43 42 43 44 44 42 41 39 38 38 38 38 38 38 38 38 38 39 40 40 40 41 41 42
29 34 37 39 40 41 42 44 47 44 43 42 39 38 38 38 37 37 38 39 40 41 42 43 43 43 44 43 43 43 44 43 42 42 42 41 40 41 41 41 41 41 42 42 43 43 43 44 45
25 29 32 34 35 36 40 41 43 44 41 40 36 35 35 35 36 36 37 38 40 40 41 42 43 43 43 44 44 45 44 45 45 44 43 43 43 43 43 44 44 43 44 45 45 46 46 47 47
24 25 27 29 31 31 33 38 38 40 39 37 35 34 35 34 35 35 35 36 37 39 40 41 41 42 42 43 44 45 45 45 46 46 46 45 45 46 46 47 47 47 48 48 48 48 47 46 47
22 23 23 24 26 27 28 30 32 33 34 34 32 32 33 33 33 34 34 35 35 37 39 41 41 42 42 42 43 44 45 46 46 46 46 47 47 47 48 48 48 48 49 49 49 48 48 48 48
21 22 23 25 26 24 25 26 26 28 30 31 31 31 32 32 33 33 33 34 35 37 38 40 41 42 43 43 44 44 45 46 46 46 46 47 47 47 48 48 49 49 50 50 49 49 50 50 50
20 20 19 20 23 22 23 24 24 26 26 28 29 31 32 32 33 34 34 34 34 36 37 38 40 41 42 43 44 45 46 47 47 48 48 49 49 50 50 50 50 51 52 52 52 52 51 51 51
17 17 18 18 20 21 21 23 23 25 26 26 27 28 31 33 33 34 34 34 35 36 37 38 39 41 42 43 44 45 46 48 49 49 49 50 50 50 52 52 53 53 53 53 53 53 53 53 53
15 16 17 18 19 20 20 22 23 24 25 26 28 29 30 31 32 33 34 35 35 36 38 39 40 41 42 43 44 45 46 47 48 49 50 51 51 52 52 53 53 53 53 53 53 52 52 52 52
13 13 15 15 16 18 20 21 22 23 25 26 28 29 30 31 32 33 34 35 36 36 37 38 39 40 41 41 42 43 44 45 46 47 48 49 49 50 50 50 51 51 51 51 51 51 51 50 50
Wind_Direction
217 217 218 218 218 218 217 213 208 204 202 203 205 208 209 211 211 212 213 211 212 215 216 218 219 221 223 223 225 228 228 227 225 225 225 227 229 231 232 238 246 250 255 262 269 274 277 279 286
215 216 217 218 219 219 217 214 210 206 204 203 204 206 207 209 210 213 213 211 212 214 215 217 219 220 223 224 226 228 228 227 226 226 225 226 229 231 233 237 243 249 255 260 266 271 273 276 282
215 215 216 218 219 219 217 215 212 209 206 204 204 206 207 209 208 210 210 210 211 214 215 217 219 221 223 225 226 228 229 229 228 227 226 226 228 230 234 237 242 250 257 263 267 271 273 275 281
214 214 216 218 218 217 216 215 214 211 209 206 205 206 206 207 206 207 210 209 211 214 216 218 219 222 224 225 227 228 229 228 228 228 226 226 228 230 234 238 243 249 256 262 266 270 274 277 281
213 214 216 217 215 214 214 214 215 214 211 208 206 205 205 203 205 207 208 209 211 213 216 218 220 222 224 226 227 228 229 228 229 229 228 228 229 230 234 239 244 248 253 259 265 270 273 277 282
212 213 216 216 213 212 212 212 215 216 214 211 207 204 204 205 205 206 206 206 211 213 215 217 220 222 225 227 227 229 230 230 231 231 230 229 229 231 234 238 243 248 254 259 265 270 275 279 284
213 213 214 214 211 211 211 212 215 216 216 214 210 206 204 203 204 206 205 204 209 212 214 217 220 223 226 228 228 230 231 232 233 231 230 230 231 232 235 238 242 247 252 258 264 268 274 280 285
212 213 213 212 210 210 210 212 214 216 217 217 214 210 206 205 204 205 206 204 209 213 216 217 220 223 226 228 230 231 232 233 234 233 232 231 233 234 236 239 243 248 252 258 263 268 274 281 286
212 213 212 210 210 208 209 212 213 216 217 218 217 216 213 211 207 206 209 206 208 213 216 216 219 221 225 228 231 233 234 234 235 235 234 233 234 235 237 240 245 249 254 259 264 269 274 280 285
212 213 210 209 210 209 210 212 212 214 218 220 220 221 220 219 215 213 214 212 210 212 213 215 217 221 224 228 231 234 236 236 237 237 236 235 236 237 240 243 247 251 255 261 265 269 274 279 284
213 211 208 209 209 209 209 211 212 213 217 219 221 224 225 225 223 222 220 218 213 212 213 214 216 220 224 228 231 234 236 238 238 238 237 238 239 240 242 245 249 253 257 262 266 271 275 279 283
213 210 209 208 209 209 209 210 212 213 215 218 220 222 225 227 227 225 225 222 218 216 213 212 214 219 223 228 232 235 237 238 238 239 240 240 242 243 244 247 251 255 259 263 268 272 276 279 283
212 209 208 208 209 210 210 209 211 214 214 217 220 222 224 227 228 228 227 225 224 221 219 217 215 219 225 229 233 235 237 238 239 240 241 242 244 245 247 249 253 257 261 265 269 272 276 280 284
210 209 209 208 208 210 210 209 210 214 215 217 220 222 225 226 228 230 230 230 229 226 223 220 219 222 225 228 233 236 240 241 242 243 243 244 245 246 247 250 254 258 262 266 270 274 277 280 284
209 208 209 208 207 208 209 208 209 213 216 217 219 222 224 227 228 230 232 233 233 231 228 225 225 224 224 228 233 238 243 246 247 248 247 247 248 249 249 251 255 259 263 268 271 274 277 280 283
210 209 209 208 209 208 209 209 208 212 216 218 219 222 224 227 229 230 232 234 233 234 232 230 230 229 228 230 235 240 245 249 251 252 252 252 252 252 253 254 256 260 263 267 270 273 276 279 281
208 208 208 208 209 209 210 209 209 212 214 217 219 221 223 225 227 230 231 233 233 233 234 234 234 234 234 235 237 241 245 250 253 255 256 257 257 256 257 257 259 261 264 267 269 272 276 278 280
205 206 206 207 209 209 209 208 209 213 215 216 218 221 224 226 228 230 231 232 234 235 236 236 237 237 238 239 241 243 246 251 254 256 258 260 260 260 260 260 261 263 265 267 269 272 274 277 279
203 204 205 206 208 209 210 209 209 210 213 214 218 221 224 226 228 229 231 233 235 237 238 239 240 240 241 242 244 246 247 250 253 256 258 260 261 262 262 263 264 265 267 269 270 272 274 276 278
202 202 205 206 209 211 212 212 211 213 213 214 216 220 224 226 228 229 231 232 234 237 239 242 243 243 244 243 245 247 249 251 254 256 258 260 261 262 262 264 265 266 268 270 271 272 274 276 278
199 202 205 207 209 213 213 214 214 215 214 215 218 218 221 224 228 230 230 232 234 237 240 242 243 245 246 246 247 248 251 252 254 256 257 258 259 261 262 263 265 267 270 273 273 274 275 278 280
195 199 203 208 212 215 216 219 216 217 219 217 219 221 224 227 230 232 233 233 235 237 239 241 243 245 247 248 250 251 252 254 255 257 258 259 260 261 263 265 267 269 271 274 275 275 277 279 281
192 197 202 208 212 217 218 220 217 219 220 220 222 224 225 227 230 232 234 234 235 238 239 241 243 245 247 249 251 252 253 254 255 257 258 260 261 263 265 266 268 271 272 274 276 277 278 280 280
192 195 200 206 211 217 219 223 223 222 223 225 227 225 226 227 229 232 233 234 236 238 240 242 244 246 247 249 251 252 254 255 256 258 259 261 263 265 266 268 270 271 273 275 276 277 279 280 280
192 195 198 204 212 218 219 223 224 223 224 225 227 227 229 229 231 233 236 237 238 240 241 242 244 245 247 249 251 253 254 256 257 258 260 261 263 264 266 268 270 271 273 274 275 276 278 279 280
193 196 201 207 215 221 223 226 226 225 226 227 230 231 232 233 233 236 238 240 240 241 242 244 246 247 248 249 251 253 254 256 257 259 261 262 265 266 268 269 270 272 273 274 275 276 277 278 279
191 200 206 212 216 222 225 228 229 228 228 230 233 234 234 235 235 237 238 239 241 242 244 245 246 248 250 251 252 254 255 257 258 260 262 263 266 267 269 270 271 272 273 274 275 277 278 279 279
193 199 207 214 218 223 225 226 228 228 228 231 233 235 235 235 236 237 238 240 242 243 245 246 248 249 252 253 254 255 256 257 259 260 262 264 266 267 268 268 270 272 274 274 275 276 278 278 279
199 207 212 217 220 224 226 226 226 228 228 230 232 233 234 235 237 239 241 243 244 245 246 247 249 250 252 253 254 255 256 257 259 261 263 264 266 268 268 270 271 272 273 274 275 276 277 278 278
209 212 215 221 224 228 231 230 227 230 231 231 232 233 234 235 236 239 241 243 245 246 246 247 249 250 252 253 254 255 256 257 259 261 262 264 266 267 269 270 272 273 274 274 275 276 277 277 278